Starlink 4401

operational
NORAD ID: 53483 Int'l Des: 2022-099 Owner: SPXS Country: US Constellation: starlink
LEOCIRCULARRETROGRADE

关于 Starlink 4401

正在加载描述...

实时位置

正在加载3D地球...

即将过境

高度历史

Altitude vs Time

uPlot chart will show altitude changes over time

两行轨道根数

1 53483U 22099U 25259.25002315 .00642406 16624-3 20240-2 0 9990
2 53483 97.6552 27.5409 0001471 80.6348 25.0714 15.91345219 6014
Epoch: Sep 16, 2025 • Age: 8 hours

当前状态

高度 322.7 km
速度 7.71 km/s
星下点 -64.43°S, 166.69°W
发射日期 Aug 12, 2022
运行时间 3 years
类型 internet

技术详情

分类 Payload
质量 300.00 kg
干质量 275.00 kg
总质量 300.00 kg
长度 0.20 m
直径 2.80 m
跨度 9.00 m
形状 Box + pan
制造商 SPXS
平台类型 Starlink
阶段状态 In Orbit
所有者/国家 SPXS/US

大型星座

Loading constellations...